Flag for India

Past Weather in Virudhunagar, Tamil Nadu, India — Yesterday and Last 2 Weeks

Now
81 °F

Passing clouds.


Feels Like: 85 °F
Forecast: 96 / 80 °F
Wind: 5 mph from West

Location: Tiruchchirapalli

Current Time: Jul 14, 2020 at 6:59:24 am

Latest Report: Jul 14, 2020 at 5:30 am


Visibility: 4 mi

Pressure: 29.68 "Hg

Humidity: 79%

Dew Point: 73 °F

Location of VirudhunagarLocation

Past Weather in Virudhunagar — Graph

°F

Virudhunagar Temperature Yesterday

Maximum temperature yesterday: 93 °F (at 12:00 pm)
Minimum temperature yesterday: 81 °F (at 5:30 am)
Average temperature yesterday: 86 °F

High & Low Weather Summary for the Past Weeks

 TemperatureHumidityPressure
High102 °F (Jun 29, 3:30 pm)100% (Jul 11, 9:00 pm)29.80 "Hg (Jul 11, 9:00 pm)
Low75 °F (Jul 11, 9:00 pm)35% (Jul 7, 2:30 pm)29.56 "Hg (Jun 29, 3:30 pm)
Average88 °F62%29.69 "Hg
* Reported Jun 29 5:30 am — Jul 14 5:30 am, Virudhunagar. Weather by CustomWeather, © 2020

Note: Actual official high and low records may vary slightly from our data, if they occured in-between our weather recording intervals... More about our weather records

Virudhunagar Weather History for the Previous 24 Hours

Scroll right to see more
 ConditionsComfort  
Time TempWeatherWind HumidityBarometerVisibility
5:30 am
Tue, Jul 14
81 °FPassing clouds.5 mph79%29.68 "Hg4 mi
4:30 am81 °FPassing clouds.5 mph79%29.68 "Hg4 mi
2:30 am81 °FPassing clouds.5 mph79%29.65 "Hg4 mi
1:30 am82 °FPassing clouds.5 mph70%29.68 "Hg4 mi
12:30 am84 °FPassing clouds.5 mph70%29.68 "Hg4 mi
11:30 pm
Mon, Jul 13
84 °FPassing clouds.3 mph70%29.68 "Hg4 mi
11:00 pm84 °FPassing clouds.5 mph74%29.71 "Hg4 mi
10:30 pm84 °FPassing clouds.5 mph74%29.71 "Hg4 mi
10:00 pm84 °FPassing clouds.5 mph74%29.71 "Hg4 mi
9:30 pm84 °FPassing clouds.5 mph74%29.68 "Hg4 mi
9:00 pm86 °FPassing clouds.3 mph75%29.68 "Hg4 mi
8:30 pm86 °FPassing clouds.3 mph70%29.68 "Hg4 mi
7:30 pm88 °FPassing clouds.3 mph62%29.65 "Hg4 mi
7:00 pm88 °FScattered clouds.3 mph62%29.62 "Hg4 mi
6:30 pm88 °FScattered clouds.5 mph62%29.62 "Hg4 mi
5:30 pm90 °FScattered clouds.6 mph59%29.62 "Hg4 mi
4:30 pm91 °FScattered clouds.7 mph59%29.59 "Hg4 mi
3:30 pm91 °FScattered clouds.6 mph56%29.62 "Hg4 mi
2:30 pm91 °FScattered clouds.6 mph59%29.65 "Hg4 mi
1:30 pm93 °FScattered clouds.7 mph53%29.68 "Hg4 mi
1:00 pm93 °FScattered clouds.9 mph53%29.68 "Hg4 mi
12:30 pm93 °FScattered clouds.12 mph53%29.68 "Hg4 mi
12:00 pm93 °FScattered clouds.9 mph53%29.71 "Hg4 mi
11:30 am91 °FScattered clouds.12 mph56%29.71 "Hg4 mi
11:00 am90 °FScattered clouds.12 mph59%29.71 "Hg4 mi
10:30 am90 °FScattered clouds.12 mph59%29.71 "Hg4 mi
10:00 am88 °FScattered clouds.9 mph62%29.71 "Hg4 mi
9:30 am86 °FScattered clouds.12 mph66%29.71 "Hg4 mi
9:00 am84 °FBroken clouds.12 mph66%29.74 "Hg4 mi
8:30 am82 °FBroken clouds.7 mph74%29.71 "Hg4 mi
8:00 am84 °FScattered clouds.7 mph66%29.71 "Hg4 mi
7:30 am82 °FBroken clouds.6 mph70%29.71 "Hg4 mi
6:30 am81 °FBroken clouds.7 mph74%29.68 "Hg4 mi
Weather by CustomWeather, © 2020

See weather overview